www.pogodaiklimat.ru

Погода и климат >> Архив погоды >> Россия >> Забайкальский край >> Большая Лепринда


ПОГОДА в Большой Лепринде

  • Прогноз погоды в Большой Лепринде
  • Монитор погоды в Большой Лепринде

АРХИВ ПОГОДЫ в Большой Лепринде

Время (UTC), дата Ветер
(напр.,м/с)
 
Видим.   Явления Облачность Т
(С)
Тd
(С)
f
(%)
Тe
(С)
Тes
(С)
Комфортность P
(гПа)
Po
(гПа)
Тmin
(С)
Tmax
(С)
R
(мм)
R24
(мм)
S
(см)
00 12.06 З 6-10
{12}
50 км 9/9 600 м
[Cb cap]
+13.4 +7.0 65 +11 +12 886.4 +11.9 0.1
03 12.06 СЗ 7-14
{16}
10 км слаб. ливневой дождь 10/10 600 м
[Cb cap]
+11.9 +4.4 60 +9 +9 1001.0 889.3
06 12.06 З 7-13
{15}
20 км осадки на расстоянии {ливн. осадки} 10/10 600 м
[Cb cap]
+11.3 +2.1 53 +8 +8 1004.3 892.0
09 12.06 СВ 1
{13}
50 км 10/6 600 м
[Cb cap Ac As]
+13.0 +1.9 47 +13 +13 1005.1 893.3
12 12.06 СВ 1 50 км 10/8 600 м
[Cb cap Ac As]
+10.3 +3.4 62 +10 +10 894.3 +13.6 0.1
15 12.06 СЗ 1 н/о 8/3 1000 м
[Cb cap Ac trans]
+8.2 +2.2 66 +8 +8 1010.1 896.0
18 12.06 С 2 н/о 6/3 1000 м
[Cb cap Ac trans]
+5.1 +3.0 86 +2 +2 1012.9 897.3
21 12.06 штиль 0 10 км 8/8 600 м
[Cb cap]
+5.3 +3.5 88 +4 +5 1014.4 898.7
00 13.06 СВ 1 50 км 8/8 600 м
[Cb cap]
+9.0 +2.7 65 +9 +10 899.1 +4.7
03 13.06 Ю 2 50 км 6/6 600 м
[Cb cap]
+13.4 +0.4 41 +13 +19 1011.0 898.7
06 13.06 В 1 50 км 6/3 1000 м
[Cu med, cong Ci fib]
+16.9 -1.3 29 +18 +24 1009.7 898.7
09 13.06 В 2 50 км 6/3 600 м
[Sc diur, vesp Ci fib]
+17.1 +0.3 32 +17 +20 1008.0 897.3
12 13.06 С 1 50 км 9/9 600 м
[Cb cap]
+13.5 +1.0 42 +14 +14 897.5 +17.6
15 13.06 ЮЗ 1 н/о 8/6 1000 м
[Sc diur, vesp Ac trans]
+9.3 +4.7 73 +9 +9 1012.6 898.7
18 13.06 штиль 0 н/о 3/3 1000 м
[Sc]
+5.7 +2.0 77 +5 +5 1015.7 900.0
21 13.06 ЮЗ 1 50 км 3/3 1000 м
[Sc]
+5.4 +3.2 86 +4 +5 1015.8 900.0
00 14.06 В 1 50 км 4/4 1000 м
[Sc]
+14.3 +1.5 42 +15 +20 898.8 +2.8
03 14.06 В 2 50 км 3/3 1000 м
[Cu hum]
+18.2 +3.3 37 +19 +31 опасность
простуды
1009.0 898.7
06 14.06 Ю 2 50 км 6/6 1000 м
[Cu med, cong]
+22.2 +4.3 31 +22 +28 комфорт 1005.9 897.3
09 14.06 Ю 2 50 км 6/5 1000 м
[Cu med, cong Ci fib]
+22.4 +3.0 28 +22 +24 комфорт 1004.4 896.0
12 14.06 штиль 0 50 км 8/4 1000 м
[Cu med, cong Cs]
+17.7 +6.6 48 +18 +18 895.8 +23.5
15 14.06 З 2 н/о 8/0
[Ci fib]
+9.0 +5.6 79 +7 +7 1011.2 897.3
18 14.06 З 2 н/о 4/0
[Ci fib]
+9.1 +5.3 77 +7 +7 1011.1 897.3
21 14.06 ЮЗ 2 50 км 6/0
[Ac lent Ci fib]
+7.8 +4.7 81 +6 +6 1011.7 897.3
00 15.06 Ю 1 50 км 3/0
[Ac lent]
+17.4 +5.1 44 +18 +25 895.5 +6.6
03 15.06 З 5
{11}
50 км 4/3 1000 м
[Cu hum Ac cast]
+24.0 +5.3 30 +24 +29 комфорт 1002.2 894.7
06 15.06 З 6-10
{11}
50 км 4/4 600 м
[Cb cap]
+24.4 +5.7 30 +24 +27 комфорт 1002.1 894.7
09 15.06 ЮЗ 4
{11}
50 км гроза без осадков 6/5 600 м
[Cb cap Ac trans]
+22.1 +7.5 39 +23 +24 комфорт 1002.9 894.7
12 15.06 ЮЗ 2
{10}
50 км гроза без осадков 8/6 600 м
[Cb cap Ac trans]
+18.5 +7.7 49 +19 +19 895.0 +25.6
15 15.06 З 2 н/о {гроза} 4/1 1000 м
[Cb cap Ac cast]
+15.2 +8.2 63 +15 +15 1007.0 896.0
18 15.06 ЮЗ 3 н/о 2 балла +12.3 +7.4 72 +11 +11 1008.3 896.0
21 15.06 З 2 50 км 8/8 600 м
[Sc]
+16.0 +7.0 55 +16 +16 1006.8 896.0
00 16.06 ЮЗ 2 50 км 9/8 1000 м
[Sc Ac trans]
+17.1 +8.1 55 +17 +18 895.2 +11.8
03 16.06 ЮЗ 4 50 км 8/5 1000 м
[Sc Ac trans]
+22.2 +7.9 40 +23 +26 комфорт 1004.3 896.0
06 16.06 З 4 50 км 8/5 1000 м
[Cb cap Ac trans Ci sp]
+22.3 +8.8 42 +24 +26 комфорт 1004.2 896.0
09 16.06 ЮЗ 1 50 км 8/3 1000 м
[Sc diur, vesp Cc]
+25.3 +7.4 32 +25 +27 комфорт 1001.7 894.7
12 16.06 СВ 2 50 км 8/8 1000 м
[Cb cap]
+20.7 +7.7 43 +23 +23 комфорт 895.2 +25.4
15 16.06 СВ 1 н/о 9 баллов +14.7 +10.1 74 +15 +15 1008.6 897.3
18 16.06 Ю 1 н/о 8/0
[Ac trans Ci fib]
+11.9 +10.0 88 +12 +12 1009.8 897.3
21 16.06 штиль 0 50 км 7 баллов +10.9 +9.8 93 +10 +10 1011.8 898.7
00 17.06 ЮВ 1 20 км дым 4/0
[Ac lent Ci fib]
+19.1 +10.4 57 +21 +28 комфорт 897.5 +9.4
03 17.06 ЮВ 2 20 км дым 6 баллов +24.0 +7.6 35 +24 +30 комфорт 1005.1 897.3
06 17.06 ЮВ 2 50 км 6 баллов +27.2 +4.9 24 +26 +32 жарко 1002.5 896.0
09 17.06 В 2 20 км дым 4 балла +26.2 +4.6 25 +25 +28 комфорт 1002.9 896.0
12 17.06 З 2 10 км дым 9/8 1000 м
[Cb cap Ac As]
+20.2 +8.3 46 +22 +22 комфорт 896.1 +27.4
15 17.06 З 5 н/о дым 7 баллов +19.0 +9.5 54 +19 +19 1006.9 897.3
18 17.06 ЮЗ 2 н/о дым 1 балл +14.9 +9.0 68 +15 +15 1008.6 897.3
21 17.06 ЮЗ 2 20 км дым 2 балла +13.4 +8.0 70 +13 +13 1009.2 897.3
00 18.06 ЮЗ 1 20 км 3/0
[Ci fib]
+20.4 +9.0 48 +23 +31 комфорт 896.2 +11.6
03 18.06 Ю 1 50 км 2 балла +25.9 +8.4 33 +26 +40 жарко 1002.9 896.0
06 18.06 В 2 20 км дым 4 балла +28.3 +6.9 26 +28 +36 жарко 1000.6 894.7
09 18.06 В 3 10 км дым 2 балла +27.3 +5.5 25 +26 +30 жарко 1001.0 894.7
12 18.06 С 3 10 км дым 4/0
[Ci fib]
+21.6 +4.4 32 +22 +22 комфорт 894.2 +28.6
15 18.06 З 2 н/о дым 2 балла +17.3 +10.9 66 +18 +18 1006.1 896.0
18 18.06 З 2 н/о дым 2 балла +14.0 +9.2 73 +14 +14 1009.0 897.3
21 18.06 З 2 20 км дым 7 баллов +12.9 +9.7 81 +12 +12 1011.0 898.7

 

Местоположение метеостанции Большая Лепринда (Забайкальский край, Россия): широта 56.65 долгота 117.60 высота над уровнем моря 1001 м.

В архиве по умолчанию представлена погода в Большой Лепринде за последнюю неделю. Архивные данные за месяц целиком и за предыдущие месяцы, начиная с января 2011 года, Вы можете получить, выбрав интересующий диапазон дат из раскрывающегося списка и нажав кнопку "Ввод!".


*Определитесь, кто Вы:
робот инопланетянин человек

Внимание! Время в таблицах - всемирное. Для получения местного времени необходимо прибавить поправку, которая равна 9 ч.

Смотрите также архив погоды в соседних городах и на ближайших метеорологических станциях:

Погода в Удокане (Забайкальский край, Россия) (44 км)
Погода в Чаре (Забайкальский край, Россия) (46 км)
Погода в Таксимо (Бурятия, Россия) (174 км)
Погода в Средней Олекме (Забайкальский край, Россия) (226 км)
Погода в Усть-Нюкже (Амурская область, Россия) (239 км)
Погода в Мамакане (Иркутская область, Россия) (252 км)
Погода в Усть-Каренге (Забайкальский край, Россия) (256 км)
Погода в Перевозе (Иркутская область, Россия) (265 км)
Погода в Уаките (Бурятия, Россия) (280 км)
Погода в Тупике (Забайкальский край, Россия) (286 км)

Пояснения к столбцам:

Ветер - указаны скорость ветра в м/с - средняя за 10 мин, порывы в срок и между сроками (в фигурных скобках) и направление, откуда дует ветер: С - северный, СВ - северо-восточный, В - восточный, ЮВ - юго-восточный, Ю - южный, ЮЗ - юго-западный, З - западный, СЗ - северо-западный.
Видимость - горизонтальная дальность видимости в метрах или километрах. При видимости от 1 до 10 км при отсутствии осадков обычно наблюдается дымка, при ухудшении видимости до 1 км и менее - туман. В сухую погоду видимость может ухудшаться дымом, пылью или мглою.
Явления - указаны атмосферные явления, наблюдавшиеся в срок или в последний час перед сроком; фигурными скобками обозначены явления, наблюдавшиеся между сроками (за 1-3 часа до срока); квадратными скобками обозначены град или гололедные отложения с указанием их диаметра в мм.
Облачность - указаны через наклонную черту общая и нижняя облачность в баллах и высота нижней границы облаков в метрах; квадратными скобками обозначены формы облаков: Ci - перистые, Cs - перисто-слоистые, Cc - перисто-кучевые, Ac - высококучевые, As - высокослоистые, Sc - слоисто-кучевые, Ns - слоисто-дождевые, Cu - кучевые, Cb - кучево-дождевые. Подробнее классификацию облаков см. в Атласе облаков (PDF).
T - Температура воздуха - температура, измеренная на высоте 2 м над землей.
Td - Температура точки росы - температура, при понижении до которой содержащийся в воздухе водяной пар достигнет насыщения.
f - Относительная влажность воздуха - влажноcть воздуха, измеренная на высоте 2 м над землей.
Te - Эффективная температура - температура, которую ощущает одетый по сезону человек в тени. Характеристика душности погоды. При расчете учитывается влияние влажности воздуха и скорости ветра на теплоощущения человека.
Tes - Эффективная температура на солнце - температура, которую ощущает человек, с поправкой на солнечный нагрев. Характеристика знойности погоды. Зависит от высоты солнца над горизонтом, облачности и скорости ветра. Ночью, в пасмурную погоду, а также при ветре 12 м/с и более поправка равна нулю.
P - Атмосферное давление - приведенное к уровню моря атмосферное давление.
Po - Атмосферное давление - измеренное на уровне метеостанции атмосферное давление.
Tmin - Минимальная температура - минимум температуры воздуха на высоте 2 м над землей.
Tmax - Максимальная температура - максимум температуры воздуха на высоте 2 м над землей.
R - Количество осадков - Количество выпавших осадков за период времени, мм. При наведении курсора мыши на число - период времени, за который выпало указанное количество осадков.
R24 - Количество осадков - Количество выпавших осадков за 24 часа, мм.
S - Снежный покров - Высота снежного покрова, см. При наведении курсора мыши на число - состояние снежного покрова и степень покрытия местности в баллах.